Corsicana, TX

3:30 AM CST on December 12, 2017 (GMT -0600)
Campbell-Corsicana Municipal

Weather History for KCRS - May, 2013

Change the Weather History Date:

Wednesday, May 15, 2013

  Actual Average (KTYR) Record (KTYR)
Temperature  
Mean Temperature 71 °F -  
Max Temperature 75 °F 81 °F 94 °F (1984)
Min Temperature 69 °F 61 °F 39 °F (1907)
Cooling Degree Days 6    
Growing Degree Days 21 (Base 50)    
Moisture  
Dew Point 66 °F    
Average Humidity 84    
Maximum Humidity 94    
Minimum Humidity 73    
Precipitation  
Precipitation 0.01 in - - ()
Sea Level Pressure  
Sea Level Pressure 29.98 in    
Wind  
Wind Speed 15 mph (SSE)    
Max Wind Speed 20 mph    
Max Gust Speed 28 mph    
Visibility 7 miles    
Events Rain , Thunderstorm    
Averages and records for this station are not official NWS values.
T = Trace of Precipitation, MM = Missing Value Source: NWS Daily Summary

Daily Weather History Graph

Daily Weather History Graph

Search for Another Location

Airport or City:

Trip Planner

Search our weather history database for the weather conditions in past years. The results will help you decide how hot, cold, wet, or windy it might be!

Date:

Astronomy

May. 15, 2013 Rise Set
Actual Time 6:28 AM CDT 8:16 PM CDT
Civil Twilight 6:01 AM CDT 8:43 PM CDT
Nautical Twilight 5:28 AM CDT 9:15 PM CDT
Astronomical Twilight 4:54 AM CDT 9:50 PM CDT
Moon 11:01 AM CDT (5/15) 12:05 AM CDT (5/15)
Length of Visible Light 14h 42m
Length of Day
13h 48m
Waxing Crescent, 27% of the Moon is Illuminated
May 15
Waxing Crescent
May 17
First Quarter
May 24
Full
May 31
Last Quarter
Jun 8
New

Hourly Weather History & Observations

Time (CDT) Temp. Dew Point Humidity Pressure Visibility Wind Dir Wind Speed Gust Speed Precip Events Conditions
12:53 AM 72.0 °F 64.9 °F 78% 30.06 in 10.0 mi South 12.7 mph - N/A   Clear
1:27 AM 73.4 °F 64.4 °F 73% 30.10 in 10.0 mi South 17.3 mph 20.7 mph N/A   Mostly Cloudy
1:53 AM 73.0 °F 64.0 °F 73% 30.08 in 10.0 mi South 15.0 mph 20.7 mph N/A   Overcast
2:11 AM 71.6 °F 64.4 °F 78% 30.09 in 10.0 mi South 15.0 mph 21.9 mph N/A   Overcast
2:53 AM 72.0 °F 64.0 °F 76% 30.07 in 10.0 mi South 15.0 mph - N/A   Mostly Cloudy
3:53 AM 70.0 °F 64.0 °F 81% 30.05 in 9.0 mi South 11.5 mph - N/A   Partly Cloudy
4:53 AM 70.0 °F 64.0 °F 81% 30.05 in 9.0 mi South 11.5 mph - N/A   Scattered Clouds
5:53 AM 69.1 °F 64.0 °F 84% 30.03 in 9.0 mi South 13.8 mph - N/A   Partly Cloudy
6:44 AM 69.8 °F 64.4 °F 83% 30.04 in 8.0 mi South 16.1 mph 23.0 mph N/A   Mostly Cloudy
6:53 AM 69.1 °F 64.0 °F 84% 30.03 in 8.0 mi South 13.8 mph - N/A   Scattered Clouds
7:34 AM 69.8 °F 64.4 °F 83% 30.05 in 8.0 mi South 15.0 mph - 0.00 in   Overcast
7:45 AM 69.8 °F 64.4 °F 83% 30.05 in 7.0 mi South 16.1 mph - 0.00 in   Overcast
7:53 AM 69.1 °F 64.9 °F 87% 30.04 in 8.0 mi South 13.8 mph 21.9 mph 0.00 in   Mostly Cloudy
8:06 AM 69.8 °F 64.4 °F 83% 30.06 in 8.0 mi South 13.8 mph 20.7 mph N/A   Mostly Cloudy
8:53 AM 69.1 °F 64.9 °F 87% 30.03 in 8.0 mi SSE 11.5 mph - N/A   Mostly Cloudy
9:02 AM 69.8 °F 64.4 °F 83% 30.03 in 6.0 mi SSE 10.4 mph - 0.00 in Rain Light Rain
9:40 AM 69.8 °F 66.2 °F 88% 30.06 in 7.0 mi South 11.5 mph - 0.00 in   Overcast
9:53 AM 71.1 °F 66.0 °F 84% 30.04 in 8.0 mi South 17.3 mph - 0.00 in   Overcast
10:43 AM 73.4 °F 66.2 °F 78% 30.05 in 9.0 mi South 17.3 mph 27.6 mph N/A   Overcast
10:53 AM 73.0 °F 66.0 °F 79% 30.05 in 9.0 mi South 15.0 mph 24.2 mph N/A   Overcast
11:53 AM 73.0 °F 66.0 °F 79% 30.03 in 8.0 mi South 16.1 mph - N/A   Overcast
12:53 PM 73.9 °F 66.0 °F 76% 30.01 in 10.0 mi South 15.0 mph - N/A   Overcast
1:53 PM 72.0 °F 66.9 °F 84% 29.98 in 6.0 mi SSE 13.8 mph 21.9 mph 0.00 in   Haze
2:12 PM 71.6 °F 66.2 °F 83% 29.98 in 9.0 mi SSE 17.3 mph - N/A   Overcast
2:53 PM 71.1 °F 66.9 °F 87% 29.96 in 5.0 mi SSE 16.1 mph 23.0 mph N/A Thunderstorm Overcast
3:00 PM 69.8 °F 66.2 °F 88% 29.97 in 3.0 mi South 13.8 mph - 0.01 in Rain , Thunderstorm Light Thunderstorms and Rain
3:07 PM 69.8 °F 68.0 °F 94% 29.95 in 2.0 mi SSE 15.0 mph - 0.01 in Rain , Thunderstorm Light Thunderstorms and Rain
3:17 PM 69.8 °F 68.0 °F 94% 29.95 in 3.0 mi SSE 17.3 mph - 0.01 in Rain , Thunderstorm Light Thunderstorms and Rain
3:30 PM 69.8 °F 68.0 °F 94% 29.94 in 2.5 mi SSE 17.3 mph 24.2 mph 0.01 in Thunderstorm Overcast
3:36 PM 69.8 °F 68.0 °F 94% 29.94 in 3.0 mi SSE 19.6 mph - 0.01 in   Overcast
3:53 PM 71.1 °F 68.0 °F 90% 29.91 in 5.0 mi SSE 17.3 mph - 0.01 in   Overcast
4:39 PM 71.6 °F 68.0 °F 88% 29.90 in 7.0 mi SSE 16.1 mph 25.3 mph N/A   Overcast
4:53 PM 73.0 °F 68.0 °F 84% 29.89 in 7.0 mi SSE 19.6 mph 27.6 mph N/A   Overcast
5:24 PM 73.4 °F 68.0 °F 83% 29.89 in 7.0 mi SSE 19.6 mph - N/A   Overcast
5:53 PM 73.9 °F 68.0 °F 82% 29.87 in 7.0 mi SSE 17.3 mph 23.0 mph N/A   Overcast
6:49 PM 73.4 °F 68.0 °F 83% 29.84 in 7.0 mi SE 18.4 mph 23.0 mph N/A   Overcast
6:53 PM 73.9 °F 68.0 °F 82% 29.83 in 7.0 mi SE 19.6 mph 25.3 mph N/A   Overcast
7:53 PM 73.0 °F 68.0 °F 84% 29.83 in 7.0 mi SE 18.4 mph 24.2 mph N/A   Overcast
8:53 PM 72.0 °F 68.0 °F 87% 29.82 in 7.0 mi SE 13.8 mph - N/A   Mostly Cloudy
9:53 PM 72.0 °F 68.0 °F 87% 29.83 in 8.0 mi SE 15.0 mph 21.9 mph N/A   Overcast
10:53 PM 73.0 °F 68.0 °F 84% 29.85 in 8.0 mi SE 8.1 mph - N/A   Overcast
11:09 PM 73.4 °F 68.0 °F 83% 29.86 in 8.0 mi SE 9.2 mph - N/A Thunderstorm Overcast
11:53 PM 73.9 °F 66.0 °F 76% 29.86 in 9.0 mi SSE 17.3 mph - 0.00 in   Overcast